星链-2698 (STARLINK-2698 )

导读

STARLINK-2698是美国SpaceX公司星链(Starlink)卫星互联网项目中的一颗通信卫星,于2021年5月9日发射入轨,归属美国所有。作为星链星座组网的组成部分,它运行在近地轨道,依托星链星座的全球覆盖网络,为偏远地区提供高速低延迟的宽带互联网接入服务,采用氪离子推进和自主碰撞规避技术,单星设计寿命约5年,助力星链完成全球卫星互联网的组网布局。

Basic Information
目录编号:
48458
目录名称:
STARLINK-2698
国际标识:
2021-040AG
轨道中心:
EARTH
卫星名称:
星链-2698
卫星全名:
星链-2698 (STARLINK-2698 )
卫星状态:
在轨 (已飞行1866 天)
发射日期:
2021-05-09 UTC
国别 :
美国 (US)
星等 :
--
Orbit Information
数据来源 国际轨道数据 AOE轨道数据
星历时间 2026-06-18T08:33:07+0800
15小时前
查看轨道信息
2026-06-15T00:00:00+0800
3天前
查看轨道信息
半长轴 6848.868km 6848.89km
偏心率 0.0001112 0.0001271
轨道倾角 53.159° 53.160°
近地点辐角 91.924° 89.631°
升交点赤经 72.001° 87.626°
平近点角 268.189° 112.835°
近地点 469.969km 469.882km
远地点 471.493km 471.624km
周期 94.013分钟 94.013分钟
每日圈数 15.317032 15.316957
Detailed Information
固有亮度:
5
最大亮度:
2.5
卫星平台:
Starlink V1.0
覆盖范围:
全球
运营商:
太空探索技术公司
运营商所在国:
美国
制造商(研发单位):
太空探索技术公司
制造商所在国:
美国
使用方式:
暂无
Satellite Introduction
星链(Starlink)计划是由太空探索技术公司(SpaceX)提出的一个巨型低轨卫星互联网星座项目,计划在2019年至2024年间在太空搭建由约1.2万颗卫星组成的“星链”网络,其中1584颗将部署在地球上空550千米处的近地轨道,并从2020年开始工作。该卫星仍在工作。
2D Orbit Map
3D Orbit Map
Orbit Altitude Analysis Chart
Orbit Inclination Analysis Chart
Orbit Comprehensive Analysis Chart
View Comprehensive Chart